TimePDT,TemperatureF,Dew PointF,Humidity,Sea Level PressureIn,VisibilityMPH,Wind Direction,Wind SpeedMPH,Gust SpeedMPH,PrecipitationIn,Events,Conditions,WindDirDegrees,DateUTC
12:53 AM,66.0,48.0,52,29.83,10.0,West,6.9,-,N/A,,Clear,280,2013-08-25 07:53:00
1:53 AM,66.0,48.9,54,29.83,10.0,Variable,3.5,-,N/A,,Clear,0,2013-08-25 08:53:00
2:53 AM,66.0,48.0,52,29.84,10.0,WNW,5.8,-,N/A,,Clear,300,2013-08-25 09:53:00
3:53 AM,63.0,48.9,60,29.86,10.0,WNW,3.5,-,N/A,,Clear,300,2013-08-25 10:53:00
4:53 AM,63.0,50.0,63,29.87,10.0,WSW,4.6,-,N/A,,Clear,250,2013-08-25 11:53:00
5:53 AM,62.1,48.9,62,29.87,10.0,West,4.6,-,N/A,,Mostly Cloudy,260,2013-08-25 12:53:00
6:53 AM,62.1,48.9,62,29.89,10.0,West,5.8,-,N/A,,Mostly Cloudy,260,2013-08-25 13:53:00
7:53 AM,66.0,48.9,54,29.89,9.0,WNW,4.6,-,N/A,,Clear,300,2013-08-25 14:53:00
8:53 AM,68.0,50.0,52,29.89,9.0,WSW,5.8,-,N/A,,Clear,250,2013-08-25 15:53:00
9:53 AM,69.1,48.9,49,29.90,10.0,West,5.8,-,N/A,,Mostly Cloudy,280,2013-08-25 16:53:00
10:53 AM,72.0,48.9,44,29.89,10.0,NW,3.5,-,N/A,,Scattered Clouds,310,2013-08-25 17:53:00
11:53 AM,73.9,46.9,38,29.88,10.0,Calm,Calm,-,N/A,,Scattered Clouds,0,2013-08-25 18:53:00
12:53 PM,75.9,45.0,33,29.86,10.0,WNW,4.6,-,N/A,,Scattered Clouds,300,2013-08-25 19:53:00
1:53 PM,78.1,46.0,32,29.83,10.0,Calm,Calm,-,N/A,,Scattered Clouds,0,2013-08-25 20:53:00
2:53 PM,81.0,46.0,29,29.81,10.0,NNW,6.9,-,N/A,,Scattered Clouds,330,2013-08-25 21:53:00
3:53 PM,80.1,46.9,31,29.81,10.0,Variable,3.5,-,N/A,,Scattered Clouds,0,2013-08-25 22:53:00
4:53 PM,75.9,50.0,40,29.79,10.0,West,3.5,-,0.00,Rain,Light Rain,260,2013-08-25 23:53:00
5:53 PM,70.0,59.0,68,29.82,10.0,SSW,8.1,-,0.01,Rain,Light Rain,200,2013-08-26 00:53:00
6:53 PM,66.0,59.0,78,29.88,6.0,South,15.0,23.0,0.09,Rain,Rain,180,2013-08-26 01:53:00
7:53 PM,64.9,61.0,87,29.83,10.0,NNE,9.2,-,0.03,Rain,Light Rain,30,2013-08-26 02:53:00
8:53 PM,63.0,60.1,90,29.86,10.0,SSE,6.9,-,0.00,,Scattered Clouds,150,2013-08-26 03:53:00
9:53 PM,64.0,59.0,84,29.86,10.0,Calm,Calm,-,N/A,,Clear,0,2013-08-26 04:53:00
10:53 PM,62.1,59.0,90,29.86,10.0,Calm,Calm,-,N/A,,Clear,0,2013-08-26 05:53:00
11:53 PM,62.1,57.0,84,29.86,10.0,Calm,Calm,-,N/A,,Clear,0,2013-08-26 06:53:00